[[{"header":{"parameterUnit":"m.s-1","parameterCategory":1,"la1":30.2991,"la2":30.254,"lo1":-89.0895,"lo2":-89.0444,"dy":0.0017,"dx":0.0017,"nx":28,"ny":28,"refTime":"2025-09-08T09:00:00:Z","depth":0,"parameterNumber":2,"parameterNumberName":"U-component_of_WINDS"},"data":[0,0,0,0,0,0,0,0,0,0,0,0,0,0,0,0,0,0,0,0,0,0,0,0,0,0,0,0,0,0,0,0,0,0,0,0,0,0,0,0,0,0,0,0,0,0,0,0,0,0,0,0,0,0,0,0,0,0,-4.1777,-4.1777,0,-4.1761,-4.1761,-4.1761,-4.1589,-4.1584,-4.158,-4.1576,-4.1561,-4.1564,-4.1568,0,0,0,0,0,0,0,0,0,0,0,0,0,-4.1659,-4.1662,-4.1777,-4.1777,-4.1776,-4.1761,-4.1761,-4.1761,-4.1589,-4.1584,-4.1579,-4.1574,-4.1559,-4.1564,-4.1568,0,0,0,0,0,0,0,0,0,0,0,0,0,-4.1683,-4.1663,-4.1777,-4.1689,-4.1681,-4.1761,-4.1761,-4.1761,-4.159,-4.1584,-4.1577,-4.1571,-4.1558,-4.1563,-4.1569,-4.1732,0,0,-4.1585,-4.1588,0,0,0,0,0,0,0,0,-4.1682,-4.1688,-4.1702,-4.1695,-4.1686,-4.167,-4.1714,-4.1751,-4.1592,-4.1625,-4.1576,-4.1568,-4.1602,-4.1604,-4.1615,-4.1732,-4.1731,-4.1586,-4.1589,-4.1591,-4.1593,0,0,0,0,0,0,0,-4.1681,-4.1688,-4.177,-4.1702,-4.1693,-4.1651,-4.1647,-4.172,-4.165,-4.1621,-4.1609,-4.1609,-4.1597,-4.161,-4.1613,-4.1731,-4.1586,-4.159,-4.1594,-4.1596,-4.1982,-4.1989,0,0,0,0,0,0,-4.1691,-4.1687,-4.1771,-4.177,-4.1668,-4.1658,-4.1654,-4.1682,-4.1649,-4.1638,-4.1615,-4.1601,-4.1604,-4.1607,-4.1612,-4.1803,-4.1591,-4.1596,-4.16,-4.1976,-4.1984,-4.1992,0,0,0,0,0,0,-4.1689,-4.17,-4.1772,-4.1725,-4.1731,-4.1667,-4.17,-4.1685,-4.1698,-4.1644,-4.1631,-4.1642,-4.1599,-4.1605,-4.1704,-4.18,-4.1599,-4.1604,-4.1967,-4.1978,-4.1988,-4.2185,0,0,0,0,0,0,-4.1687,-4.1701,-4.1762,-4.1728,-4.1734,-4.1864,-4.1706,-4.1689,-4.1708,-4.169,-4.1665,-4.1655,-4.1595,-4.1697,-4.171,-4.1804,-4.1608,-4.1958,-4.1972,-4.1985,-4.217,-4.2201,-4.2228,0,0,0,0,0,-4.1683,-4.1818,-4.1766,-4.1777,-4.1809,-4.187,-4.1873,-4.1801,-4.1717,-4.1778,-4.1743,-4.1656,-4.1788,-4.1709,-4.1721,-4.1819,-4.1952,-4.1968,-4.1984,-4.2157,-4.2195,-4.2227,0,0,0,0,0,0,-4.1864,-4.1811,-4.1753,-4.1881,-4.1881,-4.1841,-4.1915,-4.1843,-4.1867,-4.185,-4.1758,-4.1754,-4.1868,-4.1853,-4.1766,-4.1976,-4.1855,-4.1874,-4.1982,-4.2018,-4.2046,-4.2048,-4.1613,0,0,0,0,0,-4.1919,-4.1972,-4.1923,-4.204,-4.2044,-4.198,-4.2004,-4.1948,-4.1944,-4.1944,-4.1916,-4.1916,-4.1957,-4.1987,-4.2021,-4.2167,-4.216,-4.224,-4.2269,-4.2293,-4.2311,-4.2388,-4.2424,-4.2043,-4.2043,-4.2043,0,0,-4.2032,-4.201,-4.2049,-4.2076,-4.207,-4.2128,-4.1981,-4.2048,-4.209,-4.1953,-4.2046,-4.2027,-4.2021,-4.2145,-4.2197,-4.2135,-4.2415,-4.2313,-4.2333,-4.2337,-4.2408,-4.2445,-4.2477,-4.2054,-4.2052,-4.205,0,0,-4.2268,-4.2257,-4.2354,-4.2351,-4.2343,-4.2301,-4.2325,-4.2295,-4.2277,-4.2369,-4.2268,-4.2317,-4.239,-4.239,-4.24,-4.264,-4.2561,-4.2654,-4.2806,-4.2882,-4.2912,-4.2938,-4.3025,-4.3058,-4.2671,-4.2672,-4.2672,0,-4.241,-4.2493,-4.2413,-4.2487,-4.2503,-4.2383,-4.2481,-4.2482,-4.2487,-4.25,-4.243,-4.2521,-4.2508,-4.2631,-4.269,-4.2702,-4.2727,-4.2656,-4.2914,-4.294,-4.2963,-4.3045,-4.3078,-4.2683,-4.2682,-4.2681,-4.268,0,-4.2669,-4.2728,-4.2807,-4.2816,-4.284,-4.2926,-4.286,-4.2895,-4.2837,-4.2803,-4.2898,-4.288,-4.2909,-4.2934,-4.2879,-4.3051,-4.3012,-4.293,-4.2806,-4.3012,-4.3088,-4.3118,-4.27,-4.2696,-4.2692,-4.2689,0,0,-4.3017,-4.2982,-4.3012,-4.3016,-4.2999,-4.3044,-4.3125,-4.3155,-4.3187,-4.3194,-4.3261,-4.3327,-4.3251,-4.3263,-4.3206,-4.3273,-4.3467,-4.3183,-4.3181,-4.3237,-4.3657,-4.372,-4.3757,-4.3414,-4.342,-4.3424,-4.3658,0,-4.3246,-4.3383,-4.3314,-4.346,-4.3514,-4.3402,-4.3473,-4.3471,-4.3442,-4.3484,-4.345,-4.3499,-4.3394,-4.3401,-4.3463,-4.343,-4.355,-4.3412,-4.3476,-4.348,-4.3482,-4.3796,-4.3862,-4.4083,-4.3686,-4.3691,-4.3695,0,-4.3531,-4.3552,-4.3703,-4.3679,-4.3699,-4.3764,-4.3787,-4.3828,-4.3825,-4.3799,-4.3813,-4.3742,-4.382,-4.3698,-4.3806,-4.3715,-4.3737,-4.3725,-4.3732,-4.3736,-4.36,-4.381,-4.4152,-4.4186,-4.374,-4.3737,-4.3733,0,-4.3772,-4.3837,-4.3937,-4.3943,-4.3917,-4.3966,-4.3957,-4.3947,-4.397,-4.399,-4.4004,-4.4033,-4.405,-4.4074,-4.4013,-4.3929,-4.4131,-4.4002,-4.4112,-4.4114,-4.416,-4.4158,-4.4512,-4.4173,-4.4173,-4.4172,-4.4172,0,-4.4034,-4.4132,-4.4045,-4.4107,-4.4213,-4.4134,-4.4241,-4.422,-4.4213,-4.4269,-4.4173,-4.4228,-4.4143,-4.419,-4.4143,-4.4241,-4.4249,-4.4231,-4.4217,-4.424,-4.4243,-4.4254,-4.4237,-4.4181,-4.4179,-4.4177,-4.4176,0,-4.4321,-4.4267,-4.4368,-4.4336,-4.433,-4.441,-4.4383,-4.4439,-4.4403,-4.4475,-4.4488,-4.4432,-4.4482,-4.4423,-4.4468,-4.4436,-4.457,-4.4533,-4.4572,-4.4562,-4.4675,-4.4666,-4.505,-4.5097,-4.4727,-4.4731,-4.4734,0,-4.4493,-4.4565,-4.4542,-4.4573,-4.457,-4.4621,-4.4644,-4.457,-4.4598,-4.4601,-4.4657,-4.47,-4.4729,-4.4815,-4.4779,-4.4814,-4.4778,-4.491,-4.4782,-4.4804,-4.4782,-4.4779,-4.4786,-4.4936,-4.4941,-4.4944,-4.4947,0,-4.4804,-4.4774,-4.4811,-4.4841,-4.4872,-4.4891,-4.4902,-4.4933,-4.4856,-4.4893,-4.4944,-4.4967,-4.5014,-4.5058,-4.5083,-4.5074,-4.5,-4.4988,-4.5015,-4.504,-4.506,-4.5052,-4.4644,-4.4979,-4.4976,-4.4974,-4.4972,-4.4971,-4.5039,-4.5099,-4.5092,-4.5138,-4.5139,-4.5153,-4.5205,-4.5176,-4.5217,-4.525,-4.5203,-4.5268,-4.5264,-4.529,-4.529,-4.534,-4.5283,-4.5323,-4.5333,-4.5344,-4.5362,-4.5052,-4.5344,-4.5343,-4.5342,-4.5341,-4.534,0,-4.5346,-4.5337,-4.5379,-4.54,-4.5437,-4.5362,-4.5372,-4.5408,-4.5466,-4.5469,-4.5501,-4.556,-4.5603,-4.5571,-4.5607,-4.5653,-4.562,-4.5665,-4.5662,-4.5662,-4.5409,-4.5383,-4.5692,-4.5692,-4.5692,-4.5692,-4.5692,-4.5692,-4.551,-4.5609,-4.5579,-4.5678,-4.5667,-4.5729,-4.5742,-4.5755,-4.5757,-4.5828,-4.5863,-4.5842,-4.5832,-4.5867,-4.5904,-4.5893,-4.5912,-4.597,-4.5948,-4.5713,-4.5679,-4.5646,-4.562,-4.5974,-4.5975,-4.6196,-4.6198,-4.6199]},{"header":{"parameterUnit":"m.s-1","parameterCategory":1,"la1":30.2991,"la2":30.254,"lo1":-89.0895,"lo2":-89.0444,"dy":0.0017,"dx":0.0017,"nx":28,"ny":28,"refTime":"2025-09-08T09:00:00:Z","depth":0,"parameterNumber":3,"parameterNumberName":"V-component_of_WINDS"},"data":[0,0,0,0,0,0,0,0,0,0,0,0,0,0,0,0,0,0,0,0,0,0,0,0,0,0,0,0,0,0,0,0,0,0,0,0,0,0,0,0,0,0,0,0,0,0,0,0,0,0,0,0,0,0,0,0,0,0,-2.7417,-2.7417,0,-2.737,-2.737,-2.7369,-2.7337,-2.7337,-2.7337,-2.7337,-2.7288,-2.7287,-2.7286,0,0,0,0,0,0,0,0,0,0,0,0,0,-2.7476,-2.7475,-2.7417,-2.7417,-2.7416,-2.737,-2.737,-2.7369,-2.7337,-2.7337,-2.7337,-2.7337,-2.7289,-2.7287,-2.7286,0,0,0,0,0,0,0,0,0,0,0,0,0,-2.7442,-2.7475,-2.7417,-2.7395,-2.7392,-2.737,-2.737,-2.7369,-2.7337,-2.7337,-2.7337,-2.7336,-2.7289,-2.7287,-2.7286,-2.7283,0,0,-2.7281,-2.728,0,0,0,0,0,0,0,0,-2.7444,-2.744,-2.7399,-2.7396,-2.7394,-2.7359,-2.7373,-2.734,-2.7337,-2.7358,-2.7337,-2.7336,-2.7312,-2.7309,-2.73,-2.728,-2.7278,-2.7281,-2.728,-2.7279,-2.7279,0,0,0,0,0,0,0,-2.7447,-2.7442,-2.7399,-2.7398,-2.7395,-2.7386,-2.7381,-2.7366,-2.7338,-2.7356,-2.7354,-2.7349,-2.7311,-2.7302,-2.7299,-2.7277,-2.7281,-2.7279,-2.7278,-2.7278,-2.7247,-2.7247,0,0,0,0,0,0,-2.7453,-2.7444,-2.74,-2.7397,-2.7419,-2.7385,-2.7379,-2.7371,-2.7338,-2.7332,-2.7349,-2.7348,-2.7305,-2.7301,-2.7297,-2.7288,-2.7279,-2.7278,-2.7277,-2.7247,-2.7247,-2.7247,0,0,0,0,0,0,-2.7454,-2.7449,-2.7402,-2.742,-2.7413,-2.7384,-2.7375,-2.737,-2.7361,-2.7332,-2.7327,-2.7346,-2.7305,-2.73,-2.7285,-2.7286,-2.7277,-2.7275,-2.7246,-2.7247,-2.7247,-2.7272,0,0,0,0,0,0,-2.7456,-2.745,-2.745,-2.742,-2.7412,-2.7392,-2.7375,-2.7369,-2.7359,-2.7356,-2.7328,-2.7323,-2.7304,-2.7288,-2.7284,-2.7284,-2.7274,-2.7246,-2.7246,-2.7247,-2.7271,-2.7273,-2.7274,0,0,0,0,0,-2.7458,-2.746,-2.745,-2.7445,-2.7412,-2.7392,-2.7388,-2.7366,-2.7359,-2.7357,-2.7338,-2.7324,-2.7287,-2.7287,-2.7282,-2.7281,-2.7246,-2.7246,-2.7247,-2.727,-2.7272,-2.7274,0,0,0,0,0,0,-2.7491,-2.7455,-2.7444,-2.7436,-2.7417,-2.7387,-2.7385,-2.737,-2.7353,-2.7352,-2.7325,-2.7319,-2.7306,-2.7292,-2.7293,-2.7273,-2.7264,-2.7264,-2.7283,-2.7286,-2.7288,-2.7291,-2.7273,0,0,0,0,0,-2.7497,-2.7485,-2.7455,-2.745,-2.7441,-2.7414,-2.7405,-2.739,-2.7369,-2.7361,-2.7341,-2.7321,-2.7304,-2.7294,-2.7278,-2.7268,-2.726,-2.7265,-2.7267,-2.7268,-2.7268,-2.7258,-2.7259,-2.7248,-2.7248,-2.7248,0,0,-2.751,-2.7489,-2.7484,-2.7456,-2.744,-2.7426,-2.7408,-2.7396,-2.7385,-2.736,-2.7344,-2.7328,-2.7304,-2.7291,-2.7284,-2.7278,-2.7269,-2.7269,-2.727,-2.7269,-2.7258,-2.7259,-2.726,-2.7248,-2.7248,-2.7248,0,0,-2.7526,-2.751,-2.7503,-2.7486,-2.7461,-2.7442,-2.744,-2.7411,-2.7399,-2.7383,-2.7362,-2.7348,-2.7321,-2.7303,-2.7291,-2.7295,-2.728,-2.729,-2.73,-2.7291,-2.7291,-2.7292,-2.7291,-2.7291,-2.729,-2.729,-2.729,0,-2.7546,-2.7526,-2.7501,-2.7489,-2.7476,-2.745,-2.7441,-2.7426,-2.7397,-2.7388,-2.7382,-2.7344,-2.7326,-2.7307,-2.7307,-2.7299,-2.7294,-2.7294,-2.7293,-2.7294,-2.7294,-2.7292,-2.7292,-2.7291,-2.7291,-2.7291,-2.7291,0,-2.7549,-2.7535,-2.7532,-2.7502,-2.7489,-2.7479,-2.7451,-2.744,-2.7424,-2.7406,-2.7387,-2.7364,-2.734,-2.7335,-2.7321,-2.7312,-2.7309,-2.7298,-2.7288,-2.7296,-2.7294,-2.7294,-2.7293,-2.7293,-2.7292,-2.7292,0,0,-2.7587,-2.7541,-2.754,-2.7525,-2.7493,-2.7481,-2.7467,-2.7443,-2.7433,-2.7413,-2.7399,-2.7374,-2.7363,-2.7349,-2.7332,-2.7323,-2.7324,-2.7313,-2.7312,-2.7314,-2.7309,-2.7316,-2.7316,-2.7313,-2.7313,-2.7313,-2.731,0,-2.7597,-2.7572,-2.7548,-2.7531,-2.7515,-2.7489,-2.7476,-2.7454,-2.7435,-2.7418,-2.7397,-2.7379,-2.7367,-2.7358,-2.7348,-2.7326,-2.7322,-2.7326,-2.7299,-2.7298,-2.7305,-2.7315,-2.7324,-2.7322,-2.7309,-2.7309,-2.7309,0,-2.7606,-2.7585,-2.7566,-2.7531,-2.7524,-2.7514,-2.7487,-2.7472,-2.7445,-2.7431,-2.7413,-2.7394,-2.7376,-2.7367,-2.734,-2.7343,-2.733,-2.7317,-2.7316,-2.7313,-2.7304,-2.731,-2.7322,-2.7321,-2.7308,-2.7308,-2.7308,0,-2.7633,-2.76,-2.7583,-2.7571,-2.7531,-2.7523,-2.7506,-2.7479,-2.7464,-2.7441,-2.743,-2.7406,-2.7392,-2.7372,-2.7345,-2.7342,-2.732,-2.731,-2.7307,-2.7307,-2.7304,-2.7304,-2.7312,-2.7297,-2.7297,-2.7297,-2.7297,0,-2.7646,-2.7635,-2.7594,-2.7584,-2.7569,-2.754,-2.7526,-2.7506,-2.7481,-2.7465,-2.744,-2.7426,-2.7392,-2.7372,-2.7352,-2.733,-2.7325,-2.7312,-2.7306,-2.7314,-2.7315,-2.7305,-2.7304,-2.7297,-2.7297,-2.7297,-2.7297,0,-2.7674,-2.7646,-2.7626,-2.7588,-2.7578,-2.7569,-2.7536,-2.7523,-2.7502,-2.7481,-2.7475,-2.744,-2.7416,-2.7387,-2.7353,-2.7339,-2.7319,-2.7312,-2.7328,-2.7324,-2.7322,-2.7322,-2.7322,-2.7319,-2.7308,-2.7309,-2.7309,0,-2.7684,-2.7674,-2.7634,-2.7621,-2.7605,-2.7585,-2.7569,-2.7538,-2.7523,-2.7488,-2.748,-2.7453,-2.7429,-2.739,-2.7362,-2.7335,-2.7326,-2.7327,-2.7322,-2.7328,-2.7323,-2.7323,-2.7321,-2.7329,-2.7329,-2.733,-2.733,0,-2.7703,-2.7689,-2.7667,-2.764,-2.7621,-2.7598,-2.7574,-2.7565,-2.7529,-2.7512,-2.7486,-2.7468,-2.7431,-2.7404,-2.7372,-2.7353,-2.7334,-2.7331,-2.7329,-2.7336,-2.7345,-2.7337,-2.7331,-2.7332,-2.7332,-2.7332,-2.7331,-2.7331,-2.7721,-2.771,-2.7679,-2.7654,-2.7632,-2.7609,-2.7595,-2.757,-2.7547,-2.7515,-2.7498,-2.7471,-2.744,-2.7395,-2.7376,-2.7353,-2.7348,-2.7345,-2.7343,-2.7343,-2.7344,-2.7349,-2.7348,-2.7348,-2.7348,-2.7348,-2.7348,0,-2.7737,-2.7715,-2.7693,-2.7658,-2.7638,-2.7622,-2.7593,-2.7577,-2.7554,-2.7526,-2.7503,-2.747,-2.7442,-2.741,-2.738,-2.7367,-2.7358,-2.736,-2.736,-2.7355,-2.7352,-2.7356,-2.7368,-2.7368,-2.7368,-2.7368,-2.7368,-2.7368,-2.7743,-2.7722,-2.7703,-2.7669,-2.7647,-2.762,-2.7604,-2.7582,-2.7559,-2.7524,-2.75,-2.7479,-2.7449,-2.7415,-2.7387,-2.7378,-2.7368,-2.7372,-2.736,-2.7358,-2.7356,-2.7355,-2.7358,-2.737,-2.737,-2.7365,-2.7365,-2.7365]}]]